Flag for Germany Weather past 2 weeks in Würzburg, Bavaria, Germany

Now
45 °F

Passing clouds.


Feels Like: 45 °F
Forecast: 40 / 69 °F
Wind: 2 mph from North

Location: Wuerzburg

Current Time: May 27, 2015 at 6:03:34 AM

Latest Report: May 27, 2015 at 5:00 AM


Visibility: 22 mi

Pressure: 30.24 "Hg

Humidity: 79%

Dew point: 39 °F

Location of WürzburgLocation

Historic Weather in Würzburg — Graph

°F

Würzburg temperature yesterday

Maximum temperature yesterday: 59 °F (at 1:00 PM)
Minimum temperature yesterday: 49 °F (at 7:00 AM)
Average temperature yesterday: 54 °F

Past Weeks' High & Low Weather Summary

 TemperatureHumidityPressure
High83 °F (May 12, 3:00 PM)92% (May 25, 11:00 PM)30.38 "Hg (May 25, 11:00 PM)
Low40 °F (May 22, 6:00 AM)26% (May 15, 5:00 PM)29.71 "Hg (May 18, 8:00 PM)
Average58 °F59%30.06 "Hg
* Reported May 12 5:00 AM — May 27 5:00 AM, Würzburg, Weather by CustomWeather, © 2015

Note: Actual official high and low records may vary slightly from our data, if they occured in-between our weather recording intervals... More about our weather records

Advertising

Würzburg weather history for previous 24 hours

 ConditionsComfort  
Time TempWeatherWind HumidityBarometerVisibility
5:00 AM
Wed, May 27
45 °FPassing clouds.2 mph79%30.24 "Hg22 mi
4:00 AM47 °FOvercast.2 mph75%30.24 "Hg28 mi
3:00 AM49 °FOvercast.2 mph71%30.23 "Hg28 mi
2:00 AM50 °FOvercast.2 mph66%30.22 "Hg28 mi
1:00 AM51 °FOvercast.3 mph64%30.22 "Hg28 mi
12:00 AM51 °FOvercast.3 mph62%30.21 "Hg28 mi
11:00 PM
Tue, May 26
52 °FOvercast.2 mph60%30.20 "Hg37 mi
10:00 PM53 °FOvercast.3 mph55%30.19 "Hg37 mi
9:00 PM54 °FOvercast.3 mph53%30.16 "Hg37 mi
8:00 PM55 °FOvercast.5 mph47%30.14 "Hg43 mi
7:00 PM56 °FOvercast.5 mph47%30.13 "Hg37 mi
6:00 PM57 °FOvercast.3 mph47%30.12 "Hg37 mi
5:00 PM56 °FOvercast.3 mph53%30.11 "Hg37 mi
4:00 PM57 °FOvercast.2 mph54%30.10 "Hg37 mi
3:00 PM56 °FOvercast.3 mph54%30.10 "Hg37 mi
2:00 PM57 °FOvercast.3 mph52%30.09 "Hg34 mi
1:00 PM59 °FOvercast.2 mph54%30.07 "Hg31 mi
12:00 PM56 °FOvercast.2 mph59%30.08 "Hg25 mi
11:00 AM55 °FOvercast.2 mph71%30.07 "Hg19 mi
10:00 AM53 °FOvercast.3 mph77%30.06 "Hg16 mi
9:00 AM53 °FOvercast.5 mph77%30.05 "Hg14 mi
8:00 AM51 °FPartly sunny.3 mph85%30.03 "Hg12 mi
7:00 AM49 °FOvercast.3 mph90%30.02 "Hg8 mi
Weather by CustomWeather, © 2015

See weather overviewHow to use our weather pages